Location: Bégole
(43.1574°N, 0.3291°E)
Time: 21:32:51
(UTC+00:00)

NOAA 16 DEB - Pass Details

Date: 06 March 2024
Orbit: 831 x 875 km, 98.7° (Epoch: 21 April)

Event Time Altitude Azimuth Distance (km) Brightness Sun altitude
Rises 19:48:20 0° 184° (S) 3,391 ? -21.4°
Reaches altitude 10° 19:50:50 10° 192° (SSW) 2,453 ? -21.9°
Maximum altitude 19:55:56 41° 262° (W) 1,196 ? -22.8°
Drops below altitude 10° 20:01:03 10° 332° (NNW) 2,451 ? -23.7°
Sets 20:03:33 0° 340° (NNW) 3,387 ? -24.1°
